GFSNIL_925_temp_000.txt.gz
Temp
12 12 11 11 10 9 9 9 8 8 8 8 8 7 7 6 4 4 4 4 2 2
11 10 9 9 8 9 8 8 7 7 7 6 6 6 5 4 3 3 2 3 3 3
10 9 8 8 7 7 7 7 6 6 6 5 5 4 3 3 2 2 2 2 3 4
9 8 7 7 6 6 6 6 6 5 5 4 2 1 1 2 3 4 4 4 4 4
8 7 7 6 5 5 5 4 4 3 2 2 1 2 2 3 3 4 4 4 3 4
7 6 6 5 4 3 3 2 2 2 2 2 2 2 2 3 3 3 3 3 3 2
6 5 3 2 2 3 3 3 3 3 3 3 2 2 2 3 2 2 2 1 1 1
5 4 4 4 4 3 3 3 2 2 2 2 2 2 0 1 1 1 1 1 0 0
5 4 4 4 3 3 3 2 2 2 2 1 1 -1 -2 -3 -1 -0 0 0 0 -0
4 4 4 3 3 3 2 2 1 1 1 0 -0 -2 -3 -4 -3 -2 -2 -1 -1 -1
4 4 3 3 2 2 2 1 1 0 -0 -1 -1 -3 -5 -6 -4 -3 -2 -2 -2 -2
4 3 3 3 2 2 1 1 0 -1 -1 -2 -2 -4 -6 -6 -5 -4 -4 -3 -3 -3
3 3 3 2 2 1 1 0 -1 -2 -3 -3 -4 -5 -6 -6 -6 -5 -5 -5 -5 -5
3 3 2 2 2 1 0 -1 -3 -4 -4 -4 -5 -5 -6 -7 -7 -6 -6 -5 -4 -4

GFSNIL_925_temp_003.txt.gz
Temp
14 14 13 12 11 10 10 10 10 10 9 9 9 8 7 7 6 5 4 4 3 3
13 12 11 10 10 10 9 9 10 9 9 8 7 6 5 5 4 4 4 3 3 3
12 11 10 10 9 9 9 8 8 7 6 6 4 3 3 3 4 3 3 4 4 4
11 10 10 9 9 7 6 6 5 4 4 3 2 2 2 3 3 3 3 4 4 4
10 10 9 9 7 6 5 4 3 3 2 2 2 1 2 2 3 3 3 3 3 4
9 8 8 6 5 5 5 5 4 4 4 4 4 4 4 4 3 3 3 3 3 3
8 7 7 6 6 5 5 5 4 4 4 4 4 3 3 3 2 2 3 3 3 2
7 7 7 6 5 5 5 4 4 4 4 3 3 2 1 0 0 0 1 2 2 2
7 6 6 5 5 5 4 4 4 3 3 3 2 0 -1 -2 -2 -2 -1 -0 1 1
7 5 5 5 5 5 4 4 3 3 3 2 1 -1 -2 -3 -3 -3 -2 -1 -1 -0
6 5 5 5 5 4 4 3 3 2 2 1 0 -1 -4 -5 -4 -4 -3 -2 -2 -2
6 4 5 5 4 4 4 3 3 2 0 -1 -2 -3 -5 -5 -5 -5 -5 -4 -3 -4
5 4 4 4 4 4 3 3 1 -0 -1 -2 -3 -4 -5 -6 -6 -6 -5 -5 -4 -4
5 4 4 4 4 3 3 2 -1 -2 -3 -3 -3 -4 -5 -6 -6 -6 -6 -6 -5 -5

GFSNIL_925_temp_006.txt.gz
Temp
13 12 12 11 10 10 10 9 9 8 8 7 7 6 6 6 5 5 4 4 4 4
12 11 11 10 10 9 9 7 7 6 6 5 5 4 4 3 3 3 3 3 3 3
11 11 10 10 9 7 7 6 6 5 4 4 4 3 2 2 3 3 3 3 3 2
11 10 10 9 7 6 6 5 5 4 4 3 3 2 3 3 2 2 3 3 3 3
10 9 9 8 7 6 5 5 5 5 4 4 4 4 3 3 3 3 3 3 3 3
9 8 7 7 7 6 6 5 5 5 4 4 4 4 4 4 3 2 1 1 1 2
9 8 7 7 6 6 5 5 5 4 4 4 4 3 2 1 1 0 0 -0 -0 -0
9 8 7 6 6 5 5 5 4 4 4 3 3 1 0 -0 -1 -2 -2 -2 -2 -1
9 8 6 6 5 5 5 4 4 4 3 3 2 1 -1 -2 -3 -3 -3 -3 -3 -2
4 4 4 5 5 5 4 4 4 3 3 2 1 -1 -2 -4 -4 -4 -4 -4 -4 -3
5 5 6 5 4 4 4 4 4 3 2 1 -0 -1 -2 -4 -5 -5 -5 -5 -5 -5
5 6 4 4 3 4 4 4 2 1 0 -1 -2 -2 -3 -5 -5 -5 -6 -6 -6 -5
5 5 4 4 4 4 4 3 1 -0 -2 -2 -2 -3 -4 -5 -6 -6 -6 -6 -6 -6
3 3 4 4 4 4 3 2 -0 -1 -2 -2 -2 -4 -5 -6 -6 -7 -7 -7 -7 -6

GFSNIL_925_temp_009.txt.gz
Temp
11 11 11 10 10 9 8 7 6 6 5 5 4 4 4 3 3 3 2 3 3 3
11 11 10 10 8 7 7 6 6 5 5 5 4 4 4 4 3 3 2 2 3 2
10 10 9 8 7 7 6 6 5 5 5 4 4 3 3 3 3 3 2 3 2 2
10 10 9 8 7 7 6 6 5 5 5 4 4 4 4 3 3 3 2 2 2 1
10 9 9 8 7 7 6 5 5 5 4 4 4 4 3 3 2 1 1 0 0 0
9 9 8 7 7 6 5 5 5 5 4 4 3 3 2 2 1 0 -0 -1 -1 -1
9 8 7 6 5 5 5 5 5 4 4 4 3 3 2 1 -0 -1 -2 -2 -3 -3
9 7 5 4 4 3 4 5 4 4 4 3 2 2 0 -1 -2 -2 -3 -3 -4 -4
7 6 5 4 3 4 4 4 4 4 3 2 1 0 -1 -2 -2 -3 -4 -5 -5 -5
5 4 3 3 4 4 3 3 4 3 2 1 -0 -1 -2 -3 -3 -4 -5 -5 -5 -6
5 3 3 2 3 3 3 4 2 2 1 -0 -1 -2 -3 -3 -4 -5 -5 -6 -6 -6
4 3 3 1 2 4 4 2 2 0 -1 -2 -2 -3 -4 -5 -5 -6 -6 -7 -7 -7
3 3 3 3 3 3 3 1 -0 -1 -2 -2 -3 -4 -5 -6 -7 -7 -7 -8 -8 -7
4 3 4 3 3 3 1 -0 -1 -2 -3 -3 -4 -5 -6 -7 -8 -8 -8 -8 -8 -8

GFSNIL_925_temp_012.txt.gz
Temp
11 10 10 9 9 8 7 7 6 6 5 5 4 4 4 3 3 3 3 2 2 2
11 10 10 9 9 8 7 7 6 6 5 4 4 4 4 3 3 3 3 3 2 2
11 10 10 9 9 8 7 6 6 5 5 4 4 4 4 3 3 3 2 1 1 1
10 10 9 9 8 7 6 6 5 5 4 4 4 3 3 3 2 2 1 1 0 0
10 9 9 8 7 6 5 5 4 5 4 4 4 3 3 3 2 1 0 -1 -1 -1
9 9 8 6 5 4 3 2 2 4 4 4 3 3 2 1 0 -0 -1 -2 -2 -3
7 7 6 5 5 4 2 3 3 4 4 4 3 2 1 0 -0 -1 -2 -3 -3 -4
6 6 5 5 4 3 3 3 3 4 3 3 2 1 -0 -1 -2 -2 -3 -4 -4 -5
6 5 4 3 3 3 2 3 2 3 3 2 1 -1 -1 -2 -3 -3 -4 -5 -5 -5
5 4 4 3 2 2 2 2 2 2 1 -0 -1 -2 -3 -3 -4 -5 -5 -6 -6 -6
4 4 3 3 2 2 1 2 1 0 -1 -2 -2 -3 -4 -5 -5 -6 -6 -7 -7 -7
4 3 3 3 3 2 1 1 0 -1 -2 -3 -4 -5 -5 -6 -7 -7 -7 -8 -8 -7
3 3 3 3 2 2 2 -0 -1 -2 -3 -4 -5 -6 -6 -6 -8 -8 -8 -8 -8 -8
2 2 2 3 2 2 -0 -1 -2 -3 -4 -5 -6 -6 -7 -7 -8 -8 -9 -9 -9 -8

GFSNIL_925_temp_015.txt.gz
Temp
11 11 11 10 10 9 9 8 7 6 6 5 5 4 4 4 3 3 3 3 2 2
11 11 10 10 9 9 8 6 6 5 4 4 4 4 4 3 3 3 3 2 2 1
10 10 10 9 9 8 7 6 5 4 4 4 4 4 3 3 3 3 2 2 1 0
9 9 9 8 7 5 5 4 4 3 3 4 4 4 3 3 3 2 1 0 -0 -1
9 8 8 7 5 6 6 5 3 3 3 3 3 3 3 3 2 1 0 -1 -2 -2
8 8 7 6 6 6 5 4 3 3 3 3 3 3 3 2 1 -0 -1 -2 -3 -3
7 6 6 5 5 5 4 3 3 2 2 3 3 2 1 0 -1 -2 -2 -3 -4 -4
6 5 5 5 4 3 3 2 2 2 2 2 1 1 -0 -1 -2 -3 -3 -4 -4 -5
6 5 4 4 3 3 2 2 1 2 2 0 -0 -1 -2 -3 -3 -4 -5 -5 -6 -6
5 4 4 3 3 2 1 1 0 0 -0 -1 -1 -2 -3 -4 -5 -6 -6 -7 -7 -7
4 4 3 3 2 2 2 1 -0 -1 -1 -2 -3 -4 -5 -6 -6 -7 -7 -8 -8 -8
4 3 3 2 2 2 1 -0 -1 -2 -2 -3 -4 -5 -6 -6 -7 -8 -8 -8 -8 -8
3 2 2 2 2 2 1 -0 -1 -2 -3 -4 -5 -6 -7 -7 -8 -8 -9 -8 -9 -9
2 2 2 1 1 1 -0 -1 -2 -3 -4 -5 -6 -7 -7 -8 -8 -8 -8 -9 -9 -9

GFSNIL_925_temp_018.txt.gz
Temp
11 10 10 10 10 9 9 8 7 6 5 4 4 4 4 4 3 3 3 3 2 2
9 9 9 8 9 8 7 6 5 4 4 4 4 3 4 4 3 3 3 3 2 1
9 9 9 8 8 7 6 5 5 5 4 3 3 3 3 3 3 3 2 2 1 0
9 8 8 7 7 6 6 6 6 5 3 3 3 3 3 3 3 2 1 0 -0 -1
8 8 7 6 6 5 5 5 4 4 3 3 2 2 3 3 2 1 -0 -1 -1 -2
7 7 6 6 5 5 4 3 3 2 2 2 2 2 2 1 1 -0 -1 -2 -3 -3
7 6 6 5 4 4 3 3 2 2 1 2 2 2 1 -0 -1 -2 -2 -3 -4 -4
6 5 5 4 4 3 3 2 2 1 1 1 2 1 -1 -1 -2 -3 -4 -4 -5 -6
5 5 4 4 3 3 2 1 0 0 0 0 -0 -1 -2 -3 -4 -4 -5 -6 -7 -7
5 4 4 3 3 2 2 1 0 -0 -1 -1 -2 -3 -3 -4 -5 -6 -7 -7 -8 -8
4 4 3 2 2 2 1 0 -1 -1 -2 -2 -3 -4 -4 -6 -6 -7 -8 -8 -8 -9
4 3 2 2 2 2 1 0 -1 -1 -2 -3 -4 -5 -6 -7 -7 -8 -8 -8 -8 -8
3 2 2 1 1 1 0 0 -1 -2 -3 -4 -4 -5 -7 -7 -8 -8 -8 -8 -9 -9
2 2 1 1 1 0 -0 -2 -2 -3 -3 -4 -5 -6 -7 -7 -8 -8 -8 -9 -9 -9

GFSNIL_925_temp_021.txt.gz
Temp
10 10 9 9 9 8 7 7 7 6 5 5 5 4 3 3 3 2 2 2 2 2
10 9 9 9 8 7 7 7 6 5 5 5 4 4 3 3 3 2 2 2 2 1
9 9 8 8 7 7 6 6 5 4 4 3 3 3 3 2 2 2 2 1 1 1
9 8 8 7 7 6 6 5 4 3 3 3 3 2 2 2 2 2 1 0 -0 -1
8 8 7 7 6 5 4 4 3 3 2 2 2 2 2 1 1 1 0 -0 -1 -1
8 7 6 5 5 4 4 3 2 2 2 1 1 2 1 2 1 -1 -1 -2 -2 -2
7 6 6 5 4 4 3 2 2 1 1 0 0 1 0 0 -1 -2 -2 -3 -3 -4
6 6 5 5 4 3 3 2 1 0 0 0 -1 -1 -2 -2 -2 -3 -3 -4 -5 -5
6 5 4 4 3 2 2 1 1 -0 -0 -1 -2 -2 -2 -2 -3 -4 -4 -5 -5 -6
5 4 4 3 2 2 1 1 -0 -0 -1 -2 -3 -2 -3 -4 -4 -5 -5 -6 -6 -6
4 4 3 2 2 1 1 0 -0 -1 -2 -2 -3 -3 -4 -4 -5 -6 -6 -7 -7 -7
3 2 2 1 1 1 0 -1 -1 -2 -2 -3 -4 -4 -5 -5 -6 -6 -7 -7 -7 -7
1 1 1 0 0 0 -0 -1 -2 -3 -3 -3 -4 -5 -5 -6 -6 -7 -7 -7 -7 -8
1 0 0 0 0 -0 -1 -2 -3 -3 -3 -4 -4 -5 -6 -7 -7 -7 -7 -7 -8 -8

GFSNIL_925_temp_024.txt.gz
Temp
11 12 11 11 10 10 9 8 8 7 7 7 6 6 6 5 5 4 4 4 4 4
10 11 10 10 9 9 8 8 7 7 6 6 6 6 5 5 5 4 4 4 4 4
10 10 9 9 8 8 7 7 6 6 6 6 6 6 5 5 4 4 4 4 3 3
10 9 9 8 8 7 6 6 6 5 5 5 5 5 4 4 4 4 4 3 3 3
9 9 9 8 7 7 6 5 5 5 4 4 4 3 2 3 4 3 3 3 2 2
10 9 9 8 7 6 6 5 5 4 4 4 3 1 1 2 2 2 2 1 1 1
9 8 8 7 6 6 5 4 4 4 4 3 2 2 2 1 1 1 1 0 -0 -1
8 7 7 6 6 5 4 4 4 4 3 2 1 1 0 1 1 1 0 -0 -1 -1
7 7 6 6 5 5 4 4 4 3 2 2 1 -1 -1 -2 -0 -0 -1 -1 -2 -2
6 6 5 5 5 4 4 3 3 3 2 1 0 -2 -2 -2 -2 -2 -2 -2 -3 -3
6 5 5 5 4 4 4 3 3 3 2 1 -1 -2 -3 -3 -2 -2 -3 -3 -4 -4
5 4 4 4 4 4 3 3 3 2 1 0 -1 -3 -3 -4 -3 -3 -4 -4 -4 -5
4 4 4 4 3 3 3 2 2 1 0 -1 -2 -4 -4 -5 -4 -4 -4 -4 -4 -5
3 3 3 3 2 2 2 2 1 -1 -1 -2 -2 -3 -4 -5 -6 -5 -5 -4 -4 -5

GFSNIL_925_temp_027.txt.gz
Temp
12 13 13 13 12 11 11 10 9 9 8 8 8 8 7 7 6 6 5 4 5 5
12 12 12 11 11 11 10 9 9 8 8 7 7 7 7 6 6 6 6 4 4 4
11 11 11 11 10 10 9 8 8 7 7 7 7 7 7 6 6 6 5 5 4 5
10 11 11 10 10 9 9 8 7 7 7 7 7 6 6 4 4 4 4 5 4 3
11 11 11 11 10 9 8 8 7 7 6 6 6 5 4 4 3 2 3 3 3 3
12 11 11 10 10 9 8 7 7 6 6 6 5 5 4 3 3 3 3 2 2 2
12 11 10 10 9 8 8 7 6 6 6 5 5 4 3 3 2 2 2 2 2 1
11 10 9 9 8 8 7 6 6 6 6 5 4 3 2 2 2 2 2 2 1 1
10 9 9 8 7 7 6 6 6 6 5 4 3 2 1 -0 -0 1 1 1 0 -0
9 8 8 7 7 7 6 6 5 5 4 3 2 0 -0 -1 -2 -0 0 -0 -1 -1
9 8 7 7 6 6 6 6 5 5 4 3 1 0 -1 -2 -2 -0 -0 -1 -1 -1
8 7 6 6 6 6 6 5 4 4 3 2 1 -0 -1 -2 -2 -1 -1 -2 -2 -2
6 6 6 6 5 5 5 5 4 4 3 2 1 -1 -2 -3 -3 -2 -2 -2 -2 -3
5 5 5 5 4 4 4 4 3 2 1 1 -0 -1 -3 -3 -4 -3 -3 -3 -3 -3

GFSNIL_925_temp_030.txt.gz
Temp
13 13 13 13 12 12 11 11 10 9 8 8 8 7 7 8 7 6 6 6 5 4
12 12 12 12 11 11 10 10 9 8 8 7 7 7 7 7 7 6 6 5 5 4
12 12 11 11 10 10 10 9 8 8 7 7 7 7 7 6 5 5 4 4 4 4
11 11 10 10 11 10 10 9 8 8 7 7 7 7 6 5 4 4 3 2 2 1
11 10 11 11 11 10 9 9 8 8 7 7 7 6 5 4 3 3 3 3 3 2
10 11 12 11 11 10 9 9 8 7 7 6 6 5 5 4 3 3 2 2 2 2
11 12 11 11 10 9 9 8 7 7 6 6 6 5 4 3 3 2 2 2 2 2
11 11 11 10 9 9 8 7 7 6 6 6 5 4 3 2 2 1 1 1 1 1
9 11 9 9 8 8 7 7 7 6 6 5 4 4 2 2 1 0 0 1 0 0
10 10 9 8 8 7 7 7 6 6 5 5 4 2 1 1 0 -0 -0 -0 -0 -1
10 9 8 7 6 6 6 6 6 5 5 4 3 2 1 0 -0 -1 -1 -1 -1 -1
9 8 7 6 6 6 5 5 5 5 4 3 3 1 0 -1 -1 -2 -2 -2 -2 -2
6 6 5 5 5 5 5 5 5 4 3 3 2 0 -0 -1 -2 -3 -3 -2 -2 -3
4 3 4 4 4 4 4 4 4 3 2 2 1 -0 -1 -2 -2 -3 -3 -4 -4 -3